Regional Weather Roundup
Issued by NWS

Home | Current Version | Previous Version | Text Only | Print | Product List | Glossary On
Versions: 1 2 3 4 5 6 7 8 9 10 11 12 13 14 15 16 17 18 19 20 21 22 23 24 25 26 27 28 29 30 31 32 33 34 35 36 37 38 39 40 41 42 43 44 45 46 47 48 49 50
000
ASUS46 KSEW 260810
RWRWA

WASHINGTON REGIONAL WEATHER ROUNDUP
NATIONAL WEATHER SERVICE SEATTLE WA
100 AM PDT THU APR 26 2018

NOTE:"FAIR" INDICATES FEW OR NO CLOUDS BELOW 12,000 FEET WITH NO
SIGNIFICANT WEATHER AND/OR OBSTRUCTIONS TO VISIBILITY.

WAZ507-509-555>559-260900-
SEATTLE, TACOMA, EVERETT, AND VICINITY

CITY           SKY/WX    TMP DP  RH WIND       PRES   REMARKS
EVERETT        CLEAR     54  39  57 N5        30.07S
BOEING FIELD   CLEAR     59  40  49 CALM      30.05S
RENTON         CLEAR     56  47  71 N5        30.04F
SEATAC AIRPORT PTCLDY    61  37  41 NE12      30.05F
JBLM-MCCHORD   CLEAR     47  46  99 S3        30.05S
PUYALLUP       FAIR      48  46  93 CALM      30.05S
BREMERTON      CLEAR     59  37  44 NE7       30.05S
JBLM-FT LEWIS  CLEAR     51  45  78 CALM      30.04F
TACOMA NARROWS CLEAR     54  40  59 CALM      30.06S
$$

WAZ001-503-506-510-514-515-260900-
NORTH INTERIOR

CITY           SKY/WX    TMP DP  RH WIND       PRES   REMARKS
BELLINGHAM     CLEAR     46  45  96 CALM      30.06S
FRIDAY HARBOR  CLEAR     47  37  68 CALM      30.08R
EASTSOUND      CLEAR     46  41  81 CALM      30.06S
PORT ANGELES   CLEAR     52  39  61 SW8       30.08S
EDIZ HOOK      FAIR      51  41  67 CALM      30.07S
PORT TOWNSEND  FAIR      43  41  93 CALM      30.07F
NAS WHIDBEY    PTCLDY    50  40  68 CALM      30.10S
ARLINGTON      CLEAR     48  42  80 CALM      30.07S
BURLINGTON     CLEAR     52  43  71 CALM      30.07S
$$

WAZ020-022-039-040-504-511-512-260900-
SOUTHWEST INTERIOR

CITY           SKY/WX    TMP DP  RH WIND       PRES   REMARKS
SHELTON        CLEAR     45  41  86 CALM      30.03S
OLYMPIA        CLEAR     50  40  68 CALM      30.05S
CHEHALIS         N/A     50  45  81 CALM      30.05R
KELSO          CLEAR     54  45  71 CALM      30.03S
VANCOUVER      CLEAR     56  46  69 CALM      29.99S
SCAPPOOSE, OR  CLEAR     60  42  51 NW3       29.99S
PORTLAND, OR   CLEAR     61  45  55 NW3       30.00S
$$

WAZ021-516-517-260900-
WASHINGTON COAST

CITY           SKY/WX    TMP DP  RH WIND       PRES   REMARKS
FORKS          CLEAR     50  38  63 NE3       30.03R
HOQUIAM        CLEAR     55  48  77 NE7       30.01F
ASTORIA, OR    FOG       49  49 100 SW6       30.01F VSB 3/4
$$

WAZ019-023-024-040-567>569-260900-
CASCADE MOUNTAINS AND COLUMBIA GORGE

CITY           SKY/WX    TMP DP  RH WIND       PRES   REMARKS
STAMPEDE PASS  NOT AVBL
TROUTDALE, OR  CLEAR     68  43  40 E10       29.98S
HOOD RIVER, OR SUNNY     52  43  71 CALM      30.10S
THE DALLES, OR CLEAR     54  43  66 E8        30.09R
$$

WAZ026-027-041>044-520-521-260900-
EAST SLOPES

CITY           SKY/WX    TMP DP  RH WIND       PRES   REMARKS
OMAK           CLEAR     48  34  58 NW6       30.15S
WENATCHEE      CLEAR     55  36  48 W9        30.13R
ELLENSBURG     CLEAR     50  36  58 CALM      30.13S
YAKIMA         CLEAR     46  37  71 W7        30.12S
SUNNYSIDE ARPT SUNNY     42  37  83 CALM      30.10S
YAKIMA TC      FAIR      47  35  62 S3        30.11R
$$

WAZ028-034-035-260900-
COLUMBIA BASIN

CITY           SKY/WX    TMP DP  RH WIND       PRES   REMARKS
EPHRATA        CLEAR     59  28  30 NW15      30.11R
MOSES LAKE     CLEAR     48  37  65 N8        30.11S
PASCO          CLEAR     48  43  82 CALM      30.09R
RICHLAND ARPT  SUNNY     49  41  73 CALM      30.09S
HERMISTON, OR  CLEAR     49  43  80 SE3       30.08S
$$

WAZ036>038-260900-
NORTHEAST WASHINGTON

CITY           SKY/WX    TMP DP  RH WIND       PRES   REMARKS
SPOKANE GEIGER CLEAR     47  36  65 W6        30.13R
SPOKANE FELTS  CLEAR     45  34  65 NE3       30.14R
FAIRCHILD AFB  CLEAR     47  32  55 CALM      30.13R
COEURDALENE,ID CLEAR     41  35  79 E6        30.15R
DEER PARK      CLEAR     38  31  76 NW5       30.13S
$$

WAZ029>033-260900-
SOUTHEAST WASHINGTON

CITY           SKY/WX    TMP DP  RH WIND       PRES   REMARKS
PULLMAN        CLEAR     44  38  79 CALM      30.16S
LEWISTON, ID   CLEAR     52  40  63 S3        30.12S
WALLA WALLA    CLEAR     55  42  61 E7        30.09S
PENDLETON, OR  CLEAR     50  41  71 E9        30.10S
$$



USA.gov is the U.S. government's official web portal to all federal, state and local government web resources and services.